◎アポロ型特異小惑星 2005 UD    [From YC 2493]



アポロ型特異小惑星  2005 UD & Daytime Sextantids

  東京流星ネットワークの大塚勝仁氏(K. Ohtsuka, Tokyo)らは, カテリナ・

スカイサーベイで 68-cm シュミットを使用して行なわれているNEOサーベイで,

2005年10月22日に発見された17等級の小惑星 2005 UDが昼間に活動するろくぶん

ぎ座流星群の母天体の1つの候補である可能性のあることを指摘している.さら

に,彼らによると,この天体は,(3200)フェトーンを含むふたご座流星群を構成

する1つであるかも知れないという.また,この小惑星2005 UDの現在の軌道から

4000年以上経過した未来軌道は,(3200)の現在の軌道に似ているという.台湾の

天文台でこの小惑星の観測を続けている木下大輔氏(D. Kinoshita)の 1.0-m反

射を使用した観測では,この天体の形状には,彗星の特徴は見られないとのこと

(CBET 283).

  OAA小惑星課では,2005年10月22日から11月5日までに行なわれた273個の観測

から次の軌道を決定した.加重平均残差は0".73.

            。

    Mo= 353.3334               Epoch = 2005 Aug. 18.0 TT

    ω = 207.4639                  e =   0.871996         H = 17.5

    Ω =  19.8506   (2000.0)       a =   1.273583 AU      G =  0.15

    i =  28.7237                  n゚=   0.6857455

    q =   0.163024 AU             P =   1.44 年



  この小惑星の過去・未来軌道を計算するには,軌道の精度が低いが 2005 UDの

未来軌道で,昇交点黄経が現在の(3200)と一致するものを探すと,下記の軌道と

なり,彼らのいうとおり,約4500年ほどあとの軌道が(3200)の軌道にほぼ一致す

る.なお,(3200)の近日点距離が小さいために,その残差には,相対論の影響に

よると思われる若干の系統だったずれが見られることが指摘されている.



 Object     T/TT    q        e          P     π      ω      Ω     i      E

poch 

 2005 UD    6590.2  0.143864  0.886316   1.424  224.7   319.2  265.4   21.3    6

590 03 14

 (3200)     2005.2  0.139819  0.890027   1.434  227.4   322.0  265.4   22.2    2

005 08 18



  なお,西暦-3000年と+3000年頃のこの小惑星と(3200)の軌道は,次のとおりと

なる.πは近日点黄経(ω+Ω).



 Object   T/TT   q      e         P    π      ω      Ω    i      Epoch 

 2005 UD 2950.7 0.147584 0.883964  1.434 227.18 217.57   9.61 23.06  2950 08 24

 2005 UD 2005.7 0.163024 0.871996  1.437 227.31 207.46  19.85 28.72  2005 08 18

 2005 UD-2799.3 0.249860 0.803766  1.437 221.53 184.32  37.21 44.04 -2799 04 28



 (3200)  2950.9 0.154563 0.878404  1.433 227.40 332.65 254.75 27.84  2950 11 12

 (3200) -2799.1 0.156245 0.876768  1.428 229.58 205.88  23.70 29.57 -2799 02 07



  上記の軌道からの位置予報は,次のとおりで,小惑星は,あとしばらく,観測できる.



2005/        α  (2000) δ      △      r     日々運動   Elong.  Phase   V  

  0h TT     h  m       。  ,        AU      AU    ,  PA 。     。      。      等

Nov.  6   23 00.88  -04 17.0    0.629   1.422  20.2/ 29   121.1   36.6   18.7

     16   23 07.79  -01 35.3    0.842   1.535  17.3/ 43   113.7   36.2   19.5

     26   23 15.94  +00 24.5    1.059   1.637  17.0/ 52   106.2   35.4   20.1

Dec.  6   23 25.10  +02 06.0    1.278   1.731  17.5/ 57    98.9   34.2   20.6

     16   23 35.07  +03 39.1    1.497   1.816  18.1/ 60    91.7   32.8   21.1

     26   23 45.69  +05 08.3    1.714   1.893  18.7/ 62    84.6   31.1   21.4



No identification:

 

2005 UD

Epoch 2005 Aug. 18.0 TT = JDT 2453600.5                 Nakano

M 353.33335              (2000.0)            P               Q

n   0.68574546     Peri.  207.46394     -0.69724326     +0.69801157

a   1.2735835      Node    19.85064     -0.53729174     -0.35818348

e   0.8719959      Incl.   28.72365     -0.47452021     -0.62006809

P   1.44           H   17.5           G   0.15           U   7

Residuals in seconds of arc 

051022 703  0.8-  0.1+    051031 704  0.0   1.5+    051102 D35  0.3-  0.6-  

051022 703  0.4-  0.6-    051031 704 (0.1-  2.5+)   051102 D35  0.1-  0.8-  

051022 703  0.1-  0.5-    051031 704  0.3+  1.6+    051102 D35  0.4-  1.8-  

051022 703  0.1-  0.4-    051031 D35  0.2+  0.3+    051102 D35  0.4-  1.9-  

051022 413  0.1+  0.4-    051031 D35  0.1+  0.3+    051102 D35  0.2-  0.8-  

051022 413  0.1-  0.3-    051031 D35  0.1+  0.3+    051102 D35  0.4-  1.9-  

051022 J77  0.7-  0.5+    051031 D35  0.1+  0.1-    051102 D35  0.2-  0.9-  

051022 J95  0.0   0.2-    051031 D35  0.1+  0.1+    051102 D35  0.5-  1.9-  

051022 J95  0.1+  0.2-    051031 D35  0.0   0.1+    051102 D35  0.1-  0.8-  

051022 J95  0.1+  0.2-    051031 D35  0.2+  0.1+    051103 D35  0.3+  1.3+  

051022 J77  0.1+  0.3+    051031 D35  0.0   0.2+    051103 D35  0.1+  0.6+  

051022 J77  0.4-  0.4+    051031 D35  0.1+  0.0     051103 D35  0.2+  0.5+  

051022 J77  0.3-  0.3-    051031 D35  0.1+  0.1+    051103 D35  0.0   0.5+  

051022 J77  0.5-  0.2-    051031 D35  0.2+  0.0     051103 D35  0.1+  0.6+  

051022 J77  0.6-  0.4+    051031 D35  0.0   0.0     051103 D35  0.2+  0.6+  

051022 J77  0.2+  0.7-    051031 D35  0.0   0.0     051103 D35  0.2+  0.7+  

051022 I77  0.7-  0.4-    051031 D35  0.2+  0.0     051103 D35  0.1+  0.6+  

051022 I77  0.6-  0.4-    051031 D35  0.1+  0.1-    051103 D35  0.2+  0.7+  

051022 I77  0.5-  0.5-    051031 D35  0.1+  0.1+    051103 D35  0.1+  0.6+  

051023 703  0.2-  0.0     051031 D35  0.1+  0.1+    051103 D35  0.2+  0.6+  

051023 703  0.1+  0.0     051031 D35  0.0   0.1-    051103 D35  0.2+  0.6+  

051023 703  0.2-  0.3-    051031 D35  0.1+  0.0     051103 D35  0.1+  0.6+  

051023 703  0.5-  0.1+    051031 D35  0.2+  0.1+    051103 D35  0.1+  0.7+  

051023 673  0.0   0.4+    051031 D35  0.2+  0.2+    051103 D35  0.2+  0.7+  

051023 H06  0.0   0.1-    051031 D35 (0.1-  3.7-)   051103 D35  0.3+  0.7+  

051023 673  0.1+  0.2+    051031 D35 (0.7-  4.2-)   051103 D35  0.2+  0.7+  

051023 734  0.1+  0.2+    051031 D35 (0.4-  2.3-)   051103 D35  0.2+  0.8+  

051023 651  0.1-  0.6+    051031 D35  0.1-  0.6-    051103 D35  0.2+  0.5+  

051023 H06  0.1-  0.3+    051031 D35 (0.5-  2.4-)   051103 D35  0.3+  0.6+  

051023 651  0.4-  0.5+    051031 D35  0.3-  1.8-    051103 D35  0.3+  0.7+  

051023 673  0.0   0.3+    051031 D35  0.3-  1.9-    051103 D35  0.3+  0.4+  

051023 734  0.1+  0.1-    051031 D35  0.5-  2.0-    051103 D35  0.2+  0.6+  

051023 651  0.4-  0.5+    051031 D35  0.5-  1.9-    051103 D35  0.2+  0.7+  

051023 734  0.1+  0.3-    051031 D35  0.3-  2.0-    051103 D35  0.3+  0.7+  

051023 H06  0.3-  0.0     051031 D35  0.4-  1.9-    051103 D35  0.3+  0.7+  

051023 734  0.1+  0.0     051031 D35  0.3-  2.1-    051103 D35  0.4+  0.9+  

051023 673  0.1+  0.4+    051031 D35  0.3-  2.0-    051103 D35  0.4+  0.5+  

051024 413  0.2+  0.1+    051031 D35  0.3-  2.0-    051103 D35  0.3+  0.6+  

051024 413  0.2+  0.1+    051031 D35  0.1-  2.2-    051103 D35  0.3+  0.6+  

051024 413  0.1+  0.1+    051101 D35  0.3-  1.7-    051103 D35  0.3+  0.6+  

051026 704  0.1+  0.9+    051101 D35  0.2+  0.0     051103 D35  0.4+  0.5+  

051026 704  0.5+  1.0+    051101 D35  0.0   0.0     051103 D35  0.4+  0.7+  

051026 704  0.3+  0.9+    051101 D35  0.0   0.1+    051104 D35  0.1+  0.7+  

051026 704  0.1-  0.9+    051101 D35  0.4-  1.8-    051104 D35  0.0   0.7+  

051026 704  0.3+  0.4+    051101 D35  0.3-  1.8-    051104 D35  0.1+  0.7+  

051026 448  0.0   0.4+    051101 D35  0.5-  1.9-    051104 D35  0.1+  0.7+  

051026 448  0.2+  0.4+    051101 D35  0.4-  1.7-    051104 D35  0.0   0.7+  

051026 448  0.3+  0.9+    051101 D35  0.4-  1.9-    051104 D35  0.2+  1.8+  

051026 G77  0.1+  0.7+    051101 D35  0.3-  1.8-    051104 D35  0.2-  1.4+  

051026 G77  0.6+  0.5+    051101 D35  0.4-  1.7-    051104 D35  0.0   0.7+  

051026 G77  0.4+  0.5+    051101 D35  0.5-  1.8-    051104 D35  0.1-  1.3+  

051026 G77  0.5+  0.4+    051101 D35  0.6-  1.9-    051104 D35  0.0   0.7+  

051026 G77  0.4+  0.4+    051101 D35  0.3-  1.8-    051104 D35  0.2+  0.7+  

051027 151  0.3+  0.7+    051101 D35  0.3-  1.8-    051104 D35  0.0   0.5+  

051027 151  0.2+  0.8+    051101 D35  0.4-  1.7-    051104 D35  0.2+  0.7+  

051027 151  0.2+  1.1+    051101 D35  0.4-  1.7-    051104 D35  0.2+  0.8+  

051027 138  0.4+  0.6+    051101 D35  0.5-  1.7-    051104 D35  0.1+  0.6+  

051027 138  0.3+  0.8+    051101 D35  0.3-  1.8-    051104 D35  0.1+  0.7+  

051027 138  0.4+  0.6+    051101 D35  0.4-  1.7-    051104 D35  0.1+  0.7+  

051028 704  0.6+  1.6+    051101 D35  0.4-  1.7-    051104 D35  0.1+  0.6+  

051028 704  0.5+  1.2+    051101 D35  0.5-  1.6-    051104 D35  0.0   0.7+  

051028 704  0.7+  1.2+    051101 D35  0.3-  1.7-    051104 D35  0.1+  0.6+  

051028 704  0.8+  1.3+    051101 D35  0.5-  1.7-    051104 D35  0.1+  0.6+  

051028 704  0.3+  1.3+    051101 D35  0.5-  1.8-    051104 D35  0.1+  0.6+  

051029 G88  0.2+  1.0+    051101 D35  0.5-  1.7-    051104 D35  0.1+  0.7+  

051029 G88  0.2+  0.7+    051101 D35  0.4-  1.8-    051104 D35  0.1+  0.7+  

051029 G88  0.1+  0.9+    051101 D35  0.3-  1.7-    051104 D35  0.2+  0.7+  

051029 151  0.3+  1.1+    051101 D35  0.1-  0.0     051104 D35  0.2+  0.7+  

051029 151  0.2+  1.1+    051102 D35  0.1-  0.2+    051104 D35  0.2+  0.7+  

051029 151  0.3+  0.9+    051102 D35  0.7-  1.4-    051104 D35  0.1+  0.6+  

051029 151  0.2+  0.8+    051102 D35  0.3-  0.8-    051104 D35  0.2+  0.6+  

051029 A17  0.4+  0.5+    051102 D35  0.5-  1.9-    051104 D35  0.0   0.7+  

051029 A17  0.2+  0.7+    051102 D35  0.5-  1.9-    051104 D35  0.1+  0.5+  

051029 A17  0.2+  0.7+    051102 D35  0.2-  0.8-    051104 D35  0.1+  0.6+  

051030 G88  0.3+  0.9+    051102 D35  0.5-  1.7-    051104 D35  0.3+  0.7+  

051030 G88  0.2+  0.9+    051102 D35  0.2-  0.8-    051104 D35  0.2+  0.7+  

051030 G88  0.2-  0.8+    051102 D35  0.6-  1.8-    051105 D35  0.0   0.9+  

051030 151  0.3+  0.8+    051102 D35  0.3-  0.7-    051105 D35  0.0   0.8+  

051030 151  0.2+  0.8+    051102 D35  0.1-  0.4-    051105 D35  0.1+  0.8+  

051030 151  0.1+  0.8+    051102 D35  0.4-  1.8-    051105 D35  0.1+  0.7+  

051030 151  0.5+  1.2+    051102 D35  0.5-  1.8-    051105 D35  0.0   0.7+  

051030 151  0.3+  1.3+    051102 D35  0.2-  0.8-    051105 D35  0.6+  1.6+  

051030 151  0.1+  1.6+    051102 D35  0.5-  1.8-    051105 D35  0.0   0.7+  

051030 160  0.5+  1.1+    051102 D35  0.4-  0.7-    051105 D35  0.1+  0.6+  

051030 160  0.3+  0.9+    051102 D35  0.5-  1.7-    051105 D35  0.0   0.7+  

051030 160  0.4+  1.3+    051102 D35  0.3-  0.7-    051105 D35  0.1-  0.6+  

051030 160  0.4+  1.1+    051102 D35  0.3-  0.7-    051105 D35  0.0   0.6+  

051030 160  0.0   1.1+    051102 D35  0.4-  1.8-    051105 D35  0.1+  0.6+  

051031 644  0.1+  1.1+    051102 D35  0.4-  1.8-    051105 D35  0.0   0.6+  

051031 644  0.1+  1.0+    051102 D35  0.2-  0.8-    051105 D35  0.0   0.6+  

051031 644  0.0   1.1+    051102 D35  0.5-  1.9-    051105 D35  0.1+  0.6+  

051031 704 (0.1+  2.5+)   051102 D35  0.3-  0.8-    051105 D35  0.0   0.7+  

051031 704  0.0   1.6+    051102 D35  0.4-  1.7-    051105 D35  0.0   0.6+  

 

NAKANO

         **** Don't distribute anyone except personal use only ****

                (C) Copyright 2005 OAA/ComputingSection

write mail from CFAD0::NAKANO on 2005-11-16 00:11:48(JST).

 

戻ります。